Theta_e
309 309 307 306 307 309 308 310 313 315 315 314 313 314 314 317 317 314 316 319 319 318 319 318 319 319 313 306 308 310 308 307 309 312 309 308 307 308 310 310 310 308 308 307 306 307 308 310 309 308 310 309 310 314 313 314 317 318 324 326 325 328 326 326 326 322 320 318 315 311 308 310 311 310 307 305 307 309 307 307 308 306 305 305 305 304 304 306
309 309 309 307 307 310 310 310 312 314 315 315 314 314 315 318 318 316 316 317 318 318 319 319 318 316 312 307 308 309 308 308 311 313 309 308 309 310 311 309 308 307 307 306 306 307 310 311 307 308 311 311 312 312 315 315 313 321 327 324 325 329 327 325 327 321 314 313 314 312 308 309 309 308 306 307 311 309 307 308 307 308 308 306 304 303 303 304
309 309 310 309 307 309 311 311 312 314 316 316 316 316 317 319 319 317 317 316 317 318 318 319 316 312 311 310 308 308 309 310 312 311 310 310 311 311 310 308 307 306 306 306 307 308 311 311 306 310 313 312 315 313 317 316 313 322 324 323 329 331 326 323 323 317 313 311 312 312 307 308 310 307 306 308 311 310 308 308 308 310 311 309 307 303 303 303
309 310 310 310 308 307 309 310 312 313 315 317 317 317 318 318 318 317 317 317 317 317 318 317 312 308 309 310 309 308 310 313 313 311 310 311 311 310 308 307 307 306 307 306 307 310 311 308 307 312 314 313 316 314 317 319 316 318 319 327 330 322 322 324 322 316 313 309 309 312 307 309 310 306 307 308 310 310 310 309 308 310 310 311 309 305 301 302
306 310 310 310 309 308 308 308 310 311 314 317 318 318 316 316 318 318 315 317 318 316 315 314 310 307 308 309 308 309 310 313 313 311 310 310 309 308 307 308 308 306 306 306 308 311 310 308 309 315 315 315 316 314 317 316 314 316 319 327 325 317 317 323 322 314 310 308 308 311 309 309 308 306 309 308 309 311 311 310 310 310 310 310 307 305 303 305
302 306 309 311 310 309 309 308 308 309 312 317 319 318 316 314 317 319 317 318 319 315 313 312 309 309 309 307 308 310 309 311 311 311 310 310 309 307 308 309 308 306 306 308 309 309 309 309 309 313 315 315 315 316 317 311 309 315 318 319 318 315 315 317 317 312 309 309 310 311 308 307 307 309 311 308 309 310 309 310 310 309 307 303 302 305 311 313
299 301 305 308 308 308 308 308 308 309 310 314 315 314 314 316 317 319 319 319 319 317 314 312 310 309 308 307 311 311 310 310 310 311 311 310 308 307 308 309 308 306 307 307 307 309 311 310 311 314 316 314 313 316 316 310 308 312 317 317 314 311 314 314 312 311 310 309 310 308 305 306 310 310 308 307 308 307 307 307 308 306 301 299 302 307 310 311
299 299 300 302 304 305 306 307 307 307 307 308 309 308 309 313 316 318 320 319 318 316 315 312 309 308 308 309 312 313 313 312 310 311 311 309 308 308 308 310 308 306 307 307 307 312 312 311 312 313 315 315 313 314 311 309 311 312 315 317 312 310 314 313 310 312 312 310 308 305 306 309 311 308 306 308 307 307 307 306 306 305 302 302 304 306 306 307
299 299 299 300 301 302 304 305 306 306 306 305 306 307 306 308 314 318 319 320 316 313 312 308 307 308 308 310 311 312 314 313 310 310 310 308 309 309 308 310 309 308 308 307 307 309 311 313 314 312 314 313 312 313 310 311 315 313 314 315 312 311 312 310 310 313 313 312 308 305 309 310 308 307 308 309 308 308 308 307 307 305 305 306 304 304 303 304
300 300 300 301 301 302 303 304 305 305 304 304 305 306 305 306 310 311 313 315 311 308 307 306 306 306 307 310 311 311 312 312 310 310 309 308 309 310 308 308 309 309 308 308 308 308 311 314 313 313 314 312 310 309 309 312 313 311 312 312 312 310 308 308 310 312 310 311 310 308 311 311 307 307 310 310 308 307 308 309 309 306 307 307 305 303 301 302
300 301 301 301 302 302 303 303 304 304 303 304 304 303 302 303 304 303 304 305 304 304 305 305 307 307 308 311 312 312 312 311 310 309 309 308 309 310 308 306 308 309 308 308 308 309 310 310 308 311 311 310 308 307 309 310 308 307 308 308 311 309 306 307 309 309 306 307 310 308 309 310 307 307 310 309 308 307 308 310 308 307 307 306 305 303 301 302
301 302 302 302 302 303 303 303 303 302 302 303 303 302 301 302 301 301 302 301 303 304 304 305 307 308 309 311 313 313 312 311 311 310 309 309 310 310 310 307 306 309 308 309 309 310 310 307 308 312 311 309 309 307 307 306 304 306 305 306 311 310 307 307 307 306 304 307 310 308 307 309 308 309 309 308 309 308 307 308 307 305 305 304 304 303 302 300
302 302 302 302 302 302 303 303 302 302 303 303 303 302 302 301 301 302 301 302 304 304 305 306 306 308 310 312 314 311 311 311 311 310 310 311 311 310 312 308 307 309 310 309 310 311 310 307 309 314 312 312 311 306 307 307 305 305 304 305 309 309 309 306 303 305 304 307 310 307 306 308 309 310 309 307 305 305 307 307 307 306 304 304 304 304 304 301
302 301 302 302 302 302 302 302 302 302 303 303 302 302 302 301 301 302 302 303 304 305 307 308 308 309 310 314 313 310 311 310 310 311 310 312 311 311 312 308 307 310 311 311 311 312 311 306 307 310 308 311 309 302 310 315 311 308 303 307 310 307 311 309 304 306 304 306 307 305 306 307 308 310 308 307 304 304 308 309 308 307 305 305 305 305 306 304
304 301 301 302 301 302 302 302 302 302 302 302 301 302 302 301 302 302 303 304 305 307 308 308 310 312 313 315 312 310 310 309 311 311 310 311 311 311 311 308 308 309 309 309 310 310 309 308 309 310 308 307 308 308 315 319 319 317 306 310 314 307 312 314 305 305 305 306 304 304 308 307 307 311 308 306 307 306 308 310 307 307 306 307 307 306 306 305
304 302 301 302 302 302 302 303 302 302 301 301 301 301 302 302 302 303 304 306 308 309 308 309 312 313 315 316 311 310 311 311 311 310 311 310 310 312 310 308 309 309 309 308 309 308 307 311 310 308 309 307 313 322 320 312 318 320 308 309 317 309 310 311 306 306 308 306 305 305 308 307 308 313 309 306 308 308 307 308 306 306 307 307 307 307 306 306
304 303 303 302 302 302 303 302 302 301 301 301 301 302 302 302 303 304 307 309 310 310 311 314 313 311 313 314 311 312 313 312 310 310 311 309 310 312 308 309 309 308 310 308 307 308 307 311 309 308 314 313 314 319 313 309 314 317 309 308 314 311 308 309 308 308 307 306 306 306 307 306 307 309 308 307 307 307 307 307 307 307 307 307 308 308 307 306
303 303 303 303 302 302 302 301 301 301 301 302 302 302 302 303 305 307 310 313 311 310 312 313 310 311 315 313 312 313 312 311 309 309 311 310 312 312 308 308 307 306 311 309 307 309 308 311 313 313 316 314 312 309 308 317 319 314 312 311 314 314 309 310 311 308 306 308 308 308 308 307 306 306 307 307 306 307 308 307 307 307 307 308 307 307 307 307
303 303 303 303 302 301 301 301 301 301 301 302 302 303 304 306 309 310 312 312 312 312 312 312 311 314 316 314 313 313 311 309 309 309 310 311 311 311 308 307 309 309 310 310 308 310 312 312 314 314 312 311 311 308 308 319 319 316 319 315 314 315 310 310 312 308 306 309 311 309 308 308 307 307 307 307 308 308 309 308 308 308 308 308 307 308 308 307
303 304 303 303 302 302 301 301 301 301 302 301 303 305 307 310 312 315 316 315 315 314 314 317 317 314 315 314 313 312 311 310 310 310 309 310 311 311 308 310 318 316 312 313 310 309 310 310 313 315 314 311 311 311 311 316 316 315 317 314 313 312 310 310 310 310 308 311 316 312 310 312 309 308 309 309 310 310 311 310 309 310 309 309 309 309 308 308
304 304 304 303 303 302 301 301 300 301 302 301 305 309 311 315 313 313 316 316 314 309 313 317 313 312 313 312 310 310 311 312 311 311 309 310 309 308 309 313 316 312 312 314 312 310 307 308 315 316 314 311 311 313 314 314 315 315 313 312 314 312 312 310 307 313 314 312 316 315 314 315 311 311 311 310 312 312 312 312 311 311 310 309 309 309 310 309
303 304 303 302 302 301 300 301 301 301 302 302 307 311 312 314 311 308 309 312 312 307 311 314 310 314 313 309 310 309 312 314 312 313 311 309 309 308 311 317 315 310 312 311 313 313 309 312 316 311 309 311 313 314 315 314 315 317 314 313 316 314 315 313 308 314 316 312 318 319 315 314 312 311 311 311 311 311 311 311 312 312 311 311 311 311 311 311
303 303 303 302 301 301 301 301 301 302 301 302 307 311 310 309 309 307 307 310 312 310 313 315 313 318 316 311 311 310 312 314 312 315 311 309 312 309 312 321 320 315 312 311 314 314 313 318 314 307 308 314 315 313 314 314 314 318 315 314 318 315 313 313 312 315 315 311 316 319 315 313 312 312 316 315 310 312 316 314 313 311 311 312 311 311 311 313
303 302 303 302 301 301 301 302 302 302 302 302 305 308 309 309 308 307 308 309 312 312 312 312 312 317 318 312 310 310 313 313 312 314 309 310 313 309 313 322 320 316 314 314 316 315 315 315 307 307 310 313 315 313 313 313 316 321 318 315 319 314 310 313 313 314 317 314 312 316 317 320 322 322 328 324 312 314 318 317 317 315 311 309 310 313 311 311
302 302 303 303 302 301 303 304 303 302 303 303 304 304 306 308 307 307 309 309 311 313 309 308 311 313 312 309 308 310 312 312 312 311 308 310 313 309 311 315 313 315 319 316 315 315 316 308 304 312 313 312 315 315 316 315 317 322 318 314 314 310 310 316 317 317 323 322 313 313 318 326 331 326 325 323 315 316 315 313 317 320 321 319 322 328 321 314
302 303 303 303 301 302 304 307 305 303 304 304 304 305 305 308 309 308 312 314 315 316 311 308 309 309 308 308 311 311 311 312 309 307 308 309 311 310 311 313 308 311 319 316 314 314 313 305 304 313 316 314 314 315 317 315 314 316 313 311 311 310 312 317 319 317 321 323 312 310 318 322 322 317 316 318 319 321 315 312 318 326 335 336 336 333 325 321
302 302 303 302 301 303 306 308 308 305 306 307 306 307 307 308 309 306 310 315 313 312 312 310 307 307 308 308 310 311 309 312 308 306 309 309 309 308 312 317 311 312 315 312 312 313 310 310 309 312 315 314 314 316 315 313 316 315 311 310 314 313 314 316 316 315 317 319 314 313 316 317 318 316 318 319 320 321 317 319 326 330 339 343 337 329 322 321
302 302 303 302 301 304 306 309 310 306 307 310 308 309 309 308 309 309 311 311 309 311 313 311 307 308 310 308 309 312 310 312 313 309 307 307 309 308 313 318 315 317 313 308 312 314 309 315 317 316 316 315 318 317 310 308 312 313 308 310 313 312 315 316 317 319 317 315 319 319 313 315 322 323 323 319 316 319 321 327 331 329 335 338 332 325 322 321
301 302 303 302 302 303 305 308 310 308 310 310 307 309 309 306 310 313 310 308 309 313 312 310 308 310 312 310 311 314 312 313 315 313 310 308 308 309 312 316 318 320 312 308 315 316 309 311 313 316 318 317 316 311 306 309 310 309 306 310 314 314 315 317 317 320 319 316 318 319 311 312 321 326 326 317 314 322 327 330 332 328 329 328 324 321 320 320
301 302 302 303 303 302 304 307 308 310 311 309 307 310 308 308 319 317 309 309 309 309 310 309 308 309 312 311 311 313 313 313 314 313 313 311 310 312 310 310 316 319 315 313 315 314 308 305 306 310 313 312 309 305 305 310 310 308 310 314 317 317 315 318 320 317 318 324 323 317 312 311 314 324 328 318 315 321 323 327 328 322 319 318 317 317 317 316
300 302 302 303 303 303 305 307 308 310 310 308 307 308 306 311 322 318 306 308 308 307 310 310 310 313 314 312 312 313 312 314 315 313 314 313 313 315 311 310 314 317 322 321 314 311 308 308 309 308 307 307 309 308 305 306 309 310 316 319 317 321 319 320 324 317 318 330 324 314 312 312 313 320 325 320 317 316 317 319 319 315 315 315 314 314 313 311
300 302 302 302 303 304 306 307 308 308 308 308 307 313 317 312 314 315 310 310 310 309 310 310 313 318 317 313 314 315 313 314 315 313 316 315 314 317 318 319 318 316 324 323 316 317 316 313 310 306 305 306 312 316 307 306 312 314 319 321 319 322 321 320 326 321 321 326 315 310 312 312 314 315 314 316 314 313 314 313 314 314 315 315 315 314 311 307
300 302 301 302 303 304 306 307 306 306 308 307 307 320 325 314 314 316 313 313 309 307 311 312 313 315 314 314 316 315 312 313 314 313 313 313 315 320 320 319 315 312 318 318 316 322 322 315 309 307 308 304 309 318 315 312 314 314 318 323 323 322 318 322 328 318 316 318 311 308 311 313 317 316 314 315 313 313 315 314 315 315 314 314 313 310 307 306
300 302 301 302 303 303 306 306 305 307 307 306 311 319 315 314 319 313 313 316 308 306 312 313 312 313 312 313 315 313 312 313 313 313 314 312 315 323 321 313 311 317 321 317 316 320 321 316 311 310 310 305 307 313 317 318 315 314 317 318 320 324 320 322 327 318 314 319 315 309 313 322 322 317 316 314 311 313 312 312 313 313 313 311 310 310 312 316
301 302 301 303 302 303 306 306 305 307 305 309 320 318 312 318 318 311 318 321 310 310 312 309 311 314 314 313 313 312 311 312 312 312 314 314 316 325 327 318 315 320 321 319 318 315 314 315 310 306 306 305 309 308 307 314 315 312 312 313 317 323 321 317 316 315 314 317 319 313 317 325 319 313 315 312 312 315 312 312 314 317 317 312 315 321 322 325
303 302 302 303 303 304 306 305 306 306 306 313 317 313 316 322 315 309 315 313 311 316 313 309 312 314 314 314 313 312 310 310 312 313 314 315 317 320 322 321 317 316 316 320 322 315 313 316 309 305 306 304 306 306 304 311 314 311 311 317 316 312 318 319 311 308 308 314 320 316 317 320 314 312 317 318 318 318 316 316 317 319 318 316 323 327 324 327
303 302 303 304 305 305 305 306 305 305 309 315 314 315 318 316 312 313 313 309 312 315 311 311 312 311 314 314 313 313 312 310 309 312 315 314 315 316 317 318 314 313 315 316 318 317 316 317 310 306 309 305 301 305 306 306 310 313 314 317 311 305 313 318 313 314 315 317 320 316 316 319 315 314 320 320 317 316 317 317 316 318 318 318 323 323 321 321
304 303 305 307 306 304 304 305 304 306 313 312 313 319 316 308 308 314 314 312 312 312 311 311 309 310 316 315 314 313 312 312 312 314 317 315 313 315 317 317 313 312 313 310 311 314 313 315 315 306 307 307 301 305 311 306 304 309 311 308 308 312 318 314 313 321 318 315 320 318 313 314 313 317 320 316 314 316 315 314 316 318 317 318 320 320 320 320
304 303 306 308 306 303 303 305 305 311 316 312 313 317 312 308 311 312 312 313 312 312 314 314 308 308 314 316 318 315 311 314 316 314 314 313 311 311 312 315 314 311 311 310 312 315 310 312 318 307 304 307 304 308 316 311 305 306 308 307 307 314 320 316 314 319 317 316 320 320 319 318 315 318 321 315 314 315 314 315 318 318 316 316 317 319 321 323
304 302 305 305 304 303 303 304 307 313 315 313 315 314 307 308 311 309 308 310 311 312 313 316 311 308 313 313 313 315 312 314 317 315 313 311 312 313 310 312 315 312 309 307 310 315 309 309 318 310 303 307 310 311 314 315 312 310 311 313 310 308 313 313 311 312 319 323 321 319 320 319 314 315 318 315 314 313 313 316 316 316 317 316 314 315 318 321
302 303 306 303 303 304 304 306 310 311 312 311 312 310 306 308 313 312 307 307 310 310 310 316 315 313 317 314 311 314 314 316 316 314 314 312 312 312 309 310 315 313 310 309 312 316 310 311 322 317 310 315 318 310 305 308 311 311 313 315 313 310 313 316 313 310 313 317 319 319 318 315 315 316 316 315 313 312 313 314 315 315 316 316 316 313 312 315
302 306 306 301 303 304 305 309 310 308 311 313 310 309 309 310 311 311 308 307 309 310 310 312 313 316 318 314 313 315 317 319 315 312 315 314 313 312 309 307 311 312 316 318 316 315 313 313 318 319 317 316 310 302 300 303 305 307 310 312 312 313 315 320 322 317 312 309 312 314 316 317 316 315 317 318 315 311 311 311 313 313 311 312 314 313 310 310
309 311 304 301 304 304 305 308 308 307 312 313 306 306 309 310 309 309 308 308 309 311 313 312 310 312 314 311 311 313 314 316 315 315 317 315 314 313 310 308 309 310 315 317 313 311 312 314 314 316 322 316 304 299 298 300 303 307 309 308 308 312 314 317 321 318 315 313 312 313 315 317 315 314 318 320 317 312 311 310 310 311 308 308 312 316 317 316
312 309 304 302 302 304 307 309 310 309 311 310 306 304 306 306 308 311 311 311 310 311 315 315 310 309 311 310 310 311 311 311 312 314 313 314 315 309 305 308 308 308 311 313 313 311 312 317 316 315 321 322 314 310 306 304 305 309 313 309 307 310 312 311 311 309 313 317 316 315 315 313 313 315 316 317 316 315 314 311 310 312 310 308 310 314 315 316
306 305 306 305 302 305 309 310 315 314 309 308 307 307 307 305 307 310 313 312 311 311 313 312 310 310 310 308 308 310 309 307 309 310 307 311 313 306 304 306 305 308 313 311 310 310 311 317 317 315 317 316 316 320 320 316 311 309 311 309 307 309 310 311 313 312 313 315 313 315 315 311 311 314 312 311 312 312 311 310 309 311 311 310 310 311 310 311
305 305 307 305 304 307 307 305 311 317 312 308 307 309 309 307 307 305 306 308 309 309 311 309 309 311 309 307 309 312 309 305 305 307 308 312 315 309 303 304 306 308 311 308 307 311 314 314 314 316 318 314 313 316 316 314 314 314 314 311 308 307 307 312 316 315 315 315 312 313 313 310 311 311 310 309 309 309 309 309 308 309 311 312 311 311 310 309
302 307 310 307 306 308 306 305 308 310 311 309 308 310 309 307 307 304 302 304 305 307 309 308 308 310 309 309 311 312 309 305 304 306 308 312 314 308 301 302 307 307 306 307 307 310 314 313 311 313 313 311 311 312 311 311 313 316 318 315 311 307 306 310 312 313 315 316 312 311 311 310 310 309 309 309 309 309 309 308 308 308 309 311 311 311 311 309
301 308 310 305 307 309 307 307 308 307 308 308 307 309 308 306 307 307 305 303 301 304 307 307 308 311 313 312 311 311 309 307 307 308 310 310 309 307 305 303 303 303 304 306 305 309 316 316 313 311 310 312 310 309 311 311 309 312 314 315 314 309 307 309 309 310 313 312 311 311 311 311 309 308 309 308 308 308 308 308 307 307 308 308 309 310 310 308
300 304 303 299 306 313 308 306 308 306 306 306 307 308 307 308 308 307 307 305 305 306 306 308 311 311 311 311 310 312 312 310 310 310 311 310 307 307 309 307 303 301 303 305 306 308 313 317 316 311 309 312 310 308 309 308 307 309 309 310 312 310 309 308 308 309 310 310 311 310 311 310 308 308 308 308 308 308 307 307 307 307 307 308 308 309 308 307
301 304 304 301 304 308 307 308 308 306 305 305 306 307 307 308 308 306 305 308 311 309 304 306 311 309 308 309 308 309 310 310 311 311 310 309 307 308 310 311 310 304 302 305 306 304 307 313 314 310 310 314 311 306 307 307 307 308 308 309 309 308 306 306 307 308 308 308 309 309 309 309 308 307 308 307 307 307 307 308 307 307 307 307 308 308 307 307
298 297 299 303 305 305 306 308 307 306 306 305 305 307 306 308 309 306 305 308 311 311 307 308 310 308 306 306 308 309 308 308 310 312 312 311 310 309 308 309 314 311 305 304 306 305 305 309 310 308 310 317 312 305 305 306 304 303 307 310 308 306 307 307 306 306 307 308 308 308 308 308 307 307 307 307 308 307 307 307 307 306 307 307 307 308 307 307
296 295 295 299 306 307 305 307 306 305 306 306 305 306 306 306 307 305 305 307 308 309 310 310 308 307 308 309 309 309 306 305 308 310 310 311 311 311 309 306 311 315 309 304 306 306 306 310 313 309 309 315 313 305 304 304 302 303 307 308 306 306 306 306 306 306 306 307 307 308 308 307 307 307 306 307 308 307 307 307 308 307 306 306 307 307 306 305
Wind_Speed
10 11 10 8 7 8 9 8 6 5 6 7 8 6 4 5 6 6 7 7 8 10 13 13 12 11 12 17 17 17 15 16 17 13 10 9 9 11 10 8 9 10 11 10 9 5 2 1 3 4 5 3 1 1 2 1 2 1 2 2 4 4 4 6 7 6 5 2 3 2 2 5 3 4 1 2 2 4 4 5 6 6 8 12 13 9 5 2
11 11 10 10 9 9 10 9 8 9 9 9 9 8 6 5 5 6 6 6 8 9 12 13 11 9 12 15 16 17 15 18 18 16 17 13 9 10 11 9 9 10 10 9 7 5 5 2 4 6 5 1 1 1 1 1 2 2 3 2 5 5 5 6 7 6 4 3 4 2 1 5 5 3 1 3 7 5 5 7 4 7 12 15 18 15 10 7
12 12 11 11 10 10 10 10 10 11 10 9 9 10 8 7 7 7 6 7 8 8 10 10 9 9 11 14 17 17 14 14 13 11 12 12 11 10 10 9 9 9 9 7 6 6 6 4 7 7 3 1 1 1 1 1 1 2 3 2 6 5 5 5 6 7 5 3 2 3 1 2 5 3 1 3 8 8 9 8 4 8 13 13 13 12 12 11
12 12 12 11 11 10 10 11 11 11 11 11 11 11 10 10 9 8 8 9 8 9 11 10 9 11 12 15 16 15 11 8 6 2 2 7 9 8 8 9 9 8 8 7 6 7 6 5 6 4 4 2 3 1 2 2 1 1 3 4 5 4 3 6 7 7 6 3 2 1 1 3 5 2 2 2 6 12 10 8 9 12 13 12 10 8 10 12
12 13 13 12 12 11 11 12 12 11 12 12 11 12 12 12 10 9 9 10 10 11 11 9 10 12 14 16 16 13 7 3 2 2 4 3 4 6 7 9 7 6 6 7 7 8 6 4 4 4 3 2 1 1 2 2 2 1 3 5 5 4 3 6 6 5 4 2 2 2 1 5 1 1 5 5 7 12 5 6 12 13 12 11 9 5 7 9
13 13 13 14 14 13 12 12 12 12 12 13 12 13 13 12 11 10 10 10 11 12 11 10 10 13 15 16 15 9 3 2 1 3 1 2 4 5 7 7 5 4 5 8 8 7 5 4 3 2 2 1 3 3 4 1 2 2 4 3 4 4 4 4 1 3 5 4 3 3 3 1 2 5 6 8 15 17 7 4 9 11 10 7 5 4 6 9
12 13 14 15 15 15 13 13 13 12 13 14 15 15 14 13 12 11 10 10 10 11 11 11 12 13 14 15 11 4 3 5 5 1 2 4 5 6 6 6 4 4 6 8 8 6 5 5 3 4 3 1 3 3 3 1 2 2 4 4 3 4 5 3 1 2 4 5 6 2 2 1 4 7 2 8 18 16 12 9 10 10 7 4 4 6 8 10
12 13 14 15 16 16 15 14 14 14 14 14 15 15 14 13 13 12 11 10 10 11 11 11 13 13 14 13 6 3 3 7 6 3 3 4 5 5 4 5 4 5 6 7 8 7 5 5 4 4 3 2 4 3 1 2 2 3 5 4 1 3 6 5 3 3 4 6 4 1 5 7 9 4 4 18 20 11 11 10 10 10 8 6 8 10 9 9
12 13 15 16 16 16 16 15 15 15 15 14 15 15 13 12 13 13 11 9 9 11 11 11 12 13 14 9 2 3 5 5 3 3 4 5 6 5 4 4 5 6 5 6 6 7 6 4 4 4 3 3 4 3 1 2 2 5 6 3 2 4 6 4 4 6 5 5 2 3 9 9 7 3 9 21 15 6 4 5 5 5 7 9 10 11 10 10
13 14 15 16 17 17 16 16 16 16 16 15 14 14 13 12 13 13 12 10 9 9 9 9 10 11 12 6 1 4 5 4 3 4 5 5 5 4 4 4 6 7 5 4 5 7 5 5 5 5 5 3 4 3 2 4 3 4 4 3 4 5 5 2 5 6 3 3 4 6 10 8 3 2 9 12 2 1 4 6 6 3 8 9 8 10 8 10
14 15 16 17 17 17 16 16 16 16 16 15 15 14 12 11 12 12 12 11 9 7 7 9 9 8 8 2 2 5 5 4 4 5 6 5 5 4 4 4 7 8 7 4 6 7 3 7 9 5 2 2 3 2 1 4 2 2 1 4 7 6 5 4 7 6 1 3 5 7 8 8 1 1 15 11 1 4 7 10 10 6 9 9 8 9 6 8
14 15 16 17 18 17 17 16 15 15 15 15 15 14 12 11 11 11 11 9 8 7 8 9 7 7 6 2 5 10 8 5 4 5 6 6 4 3 5 2 5 8 9 4 5 6 3 9 11 5 1 3 3 0 2 3 2 1 2 4 8 8 6 6 5 3 3 2 5 6 6 9 5 10 21 11 5 7 8 11 12 8 9 8 7 8 6 8
15 15 16 18 18 18 17 16 15 14 15 15 15 14 12 11 11 10 9 8 8 7 8 10 8 7 4 2 7 13 11 5 3 3 5 5 3 2 6 4 3 6 7 4 5 4 5 8 8 5 2 5 2 1 2 2 1 1 2 2 5 8 6 6 2 1 4 3 3 4 6 9 8 14 19 7 5 7 8 10 10 8 8 7 7 6 7 8
15 15 15 17 17 17 17 16 15 14 15 15 15 14 12 11 10 9 8 8 9 9 8 8 7 6 4 4 6 7 7 4 2 3 4 2 2 2 4 4 2 5 3 4 5 4 5 7 7 6 2 3 1 1 3 5 3 1 1 2 3 2 5 6 1 2 4 1 1 3 5 8 4 10 13 5 1 1 6 10 8 9 8 7 7 6 9 9
14 14 14 15 16 16 16 15 15 15 15 15 14 13 13 12 10 8 7 6 8 9 7 6 5 4 2 5 6 4 4 3 2 4 5 3 2 1 2 4 4 5 5 6 7 6 6 7 7 5 0 1 2 2 2 5 4 2 2 3 3 2 5 8 2 3 2 1 2 3 5 8 6 10 10 3 3 3 5 11 10 11 11 10 10 7 9 9
13 13 13 14 14 15 15 15 15 14 14 14 13 12 12 11 9 7 6 5 6 6 3 3 4 3 2 4 3 2 2 1 1 4 5 4 5 4 3 6 6 6 7 9 9 8 6 6 5 2 1 1 4 4 2 4 4 3 0 4 3 3 4 7 2 1 1 1 1 3 4 7 5 9 10 1 1 4 8 13 14 14 13 12 10 8 8 9
12 13 13 13 13 13 14 15 14 14 14 13 12 11 10 8 7 5 4 3 3 2 1 1 2 2 3 3 2 2 2 1 2 4 5 4 6 5 3 5 5 6 8 7 6 4 4 5 1 0 3 2 3 4 2 3 5 3 1 2 4 3 3 5 4 3 2 2 2 3 5 12 10 10 15 9 5 8 11 14 15 14 13 12 10 9 9 9
12 12 12 12 12 12 13 14 13 13 12 11 10 9 7 5 5 3 2 2 1 1 0 1 1 1 3 3 2 3 2 3 4 4 4 4 5 5 4 4 4 6 7 5 3 2 3 3 2 1 3 2 2 5 2 4 4 1 2 2 3 3 3 4 4 2 2 1 4 4 7 17 15 11 16 15 7 8 14 13 12 13 14 13 11 10 10 10
12 12 11 11 11 11 12 11 11 11 10 9 7 5 3 2 2 2 2 3 2 0 1 2 2 2 2 3 3 2 2 3 4 3 4 4 3 4 5 5 4 5 4 2 2 2 1 2 3 2 2 2 3 6 7 8 5 4 4 4 2 5 4 5 6 5 1 2 6 7 8 16 17 12 13 16 8 7 14 13 10 12 12 12 12 10 10 10
12 11 11 10 10 10 10 9 9 9 9 7 4 2 1 0 2 2 0 1 3 3 1 4 4 2 3 3 4 5 3 2 1 2 4 4 1 2 3 5 5 5 3 3 1 1 2 2 2 4 6 5 6 6 6 5 5 4 3 1 3 5 6 6 5 6 1 1 7 6 7 14 17 15 14 14 11 9 15 14 11 12 11 10 11 11 10 11
12 11 11 10 9 9 8 7 7 7 7 6 5 3 2 3 1 2 2 2 3 2 1 4 4 3 4 2 4 4 2 1 0 2 4 4 1 3 1 4 4 2 1 2 2 2 3 3 6 6 7 4 3 4 6 4 4 3 1 2 4 4 6 7 3 5 2 1 5 2 5 15 17 17 15 13 11 13 14 12 13 13 10 9 10 12 11 9
12 11 11 10 8 7 6 6 6 6 6 6 6 3 2 3 2 0 1 2 4 1 1 2 1 3 3 2 3 3 2 2 3 2 4 5 3 1 1 4 4 2 2 1 1 3 2 4 7 3 3 4 4 4 5 4 4 3 2 1 4 3 5 7 4 5 2 1 5 5 7 15 19 17 17 15 11 12 12 10 12 11 9 10 10 10 10 9
11 11 10 9 6 5 5 5 5 6 7 7 6 4 2 1 2 1 2 0 4 2 0 1 1 2 3 1 0 2 2 1 3 4 6 5 2 1 2 4 4 2 1 2 4 2 0 5 5 1 4 5 4 3 5 4 2 2 3 2 4 3 2 4 4 5 2 1 4 6 6 12 15 12 13 12 8 7 8 8 9 8 10 12 10 8 8 10
11 10 10 8 5 4 3 3 4 5 8 9 9 9 4 1 2 1 2 0 3 3 1 2 1 2 1 0 1 3 2 1 1 3 6 4 2 1 3 4 3 2 2 3 6 4 4 3 1 5 3 3 4 2 4 4 2 2 4 5 4 3 3 5 5 6 4 2 2 5 6 7 7 7 8 7 3 5 5 5 8 8 9 10 9 9 8 9
10 10 9 7 4 2 1 2 5 5 6 8 10 13 8 4 2 1 2 2 3 4 2 1 0 1 2 1 1 1 1 0 1 2 4 3 3 1 1 2 2 2 4 4 5 3 5 2 2 5 3 3 5 2 3 5 2 5 4 6 5 3 4 5 6 6 5 4 3 5 5 6 6 6 9 8 7 9 5 4 9 9 7 6 7 8 7 7
9 9 8 6 3 2 3 2 3 4 5 5 7 9 10 8 4 1 3 4 3 5 2 1 1 1 2 1 2 1 1 2 2 2 2 2 2 2 1 0 1 2 4 4 3 2 1 1 1 4 4 4 4 2 5 6 3 3 3 3 4 2 0 3 5 4 2 4 4 4 2 6 7 7 12 9 9 13 10 7 9 9 6 5 5 6 6 6
9 8 7 5 2 5 4 1 2 5 3 3 4 5 7 8 5 1 3 4 3 2 1 1 0 2 3 1 2 2 1 3 2 1 1 2 1 2 1 2 1 1 3 3 1 2 2 2 2 3 4 4 2 2 4 6 6 3 3 3 4 4 2 1 4 3 1 4 5 3 3 3 6 7 10 6 8 13 12 11 9 6 6 6 5 6 6 6
9 8 6 4 3 8 7 2 2 5 1 2 2 4 4 7 6 2 4 2 2 0 1 1 1 2 1 1 3 3 1 2 2 1 2 2 1 3 1 4 5 3 2 4 4 4 2 2 3 4 5 2 3 4 3 5 4 3 4 4 4 4 3 3 4 3 1 3 5 3 2 1 6 7 6 4 6 10 11 10 8 7 7 6 7 8 7 6
8 7 6 4 4 9 10 5 3 4 2 3 1 5 6 7 5 4 4 0 1 1 1 1 2 0 2 2 3 2 1 1 1 2 3 2 1 3 1 4 6 4 0 2 4 4 0 2 5 6 4 3 4 3 3 4 2 3 4 3 3 4 4 4 4 3 3 3 3 3 2 0 5 7 4 1 2 7 8 7 7 8 8 7 8 9 8 7
7 7 5 3 3 6 8 7 7 5 2 2 3 8 8 5 4 5 1 2 0 1 0 1 1 1 2 2 2 3 1 0 2 2 3 1 3 5 2 2 5 5 1 3 1 3 2 2 2 3 3 4 4 2 1 3 3 3 3 3 4 4 4 4 3 3 4 2 5 4 1 1 3 6 5 3 3 4 3 6 8 9 10 9 8 7 7 7
6 6 6 4 4 5 5 4 6 7 2 1 7 9 6 3 5 5 2 4 1 1 1 1 1 2 4 2 1 2 1 1 3 2 1 1 3 3 2 1 3 3 3 4 2 2 1 0 2 1 1 3 5 3 2 2 2 4 3 3 3 4 4 4 4 4 3 4 6 4 2 2 3 6 5 4 5 4 2 6 11 12 13 11 9 8 6 6
5 6 7 6 7 8 6 1 1 5 5 6 8 5 4 2 1 2 4 3 1 2 1 0 2 2 3 1 1 1 1 0 1 2 2 1 1 2 3 4 4 1 3 2 2 3 2 3 1 1 1 3 4 3 3 4 4 4 4 4 3 3 4 3 4 1 2 5 4 3 2 2 6 9 9 11 12 9 7 8 10 11 13 12 12 11 7 6
6 6 7 7 9 10 9 2 2 3 9 9 5 4 6 3 2 4 3 2 1 1 1 1 2 2 3 2 1 1 1 1 0 1 1 2 0 3 3 3 5 2 1 2 1 4 3 2 2 1 1 0 3 3 1 1 2 3 4 4 3 2 2 2 4 2 3 4 2 3 2 2 6 8 9 11 10 9 8 9 10 10 11 12 12 11 10 9
6 6 6 7 9 10 9 5 2 3 9 7 3 5 5 1 4 3 2 3 2 2 2 2 2 3 3 0 2 2 1 1 0 1 0 1 1 3 3 3 3 5 3 1 1 0 1 3 1 2 2 1 1 3 4 4 4 3 4 5 3 4 4 3 4 3 4 3 3 3 1 3 4 5 7 7 7 7 7 8 8 8 9 9 10 10 10 10
6 5 5 5 8 10 9 6 2 5 8 4 6 5 4 4 4 2 3 4 1 1 2 3 4 3 2 2 3 2 1 2 0 3 1 1 2 3 3 4 5 4 5 2 2 1 2 4 1 1 3 0 0 2 3 4 3 1 2 5 2 3 4 2 3 4 1 3 3 2 3 5 4 9 13 9 7 7 5 4 5 7 7 6 7 9 8 8
3 3 4 4 6 8 9 6 5 9 6 5 5 2 4 4 3 3 3 2 2 4 2 4 3 2 3 3 3 3 1 1 1 1 1 2 3 4 3 4 6 7 6 4 3 2 1 4 2 2 2 1 1 2 1 1 2 2 2 2 4 3 5 3 1 1 3 1 4 1 3 5 4 9 11 7 8 9 7 5 5 7 7 5 6 7 6 7
2 2 3 4 5 8 10 7 8 9 4 6 4 4 5 4 4 5 3 2 2 4 5 1 1 3 3 2 2 3 1 1 1 0 2 2 3 4 4 3 4 8 7 4 2 3 3 3 3 1 0 1 1 0 2 2 2 4 2 4 3 2 4 4 0 3 3 2 4 1 3 5 3 4 7 8 10 11 10 9 7 8 8 7 7 7 7 7
3 2 1 3 6 8 10 10 11 7 5 4 3 4 4 3 3 3 3 2 2 3 4 2 3 2 3 2 2 3 3 3 2 1 2 2 3 4 4 2 2 3 3 2 1 2 2 2 4 1 1 2 3 1 1 3 2 3 2 2 2 2 1 2 1 1 1 2 4 3 4 4 4 5 6 9 10 11 11 9 8 9 8 7 8 8 8 7
4 1 1 3 7 8 12 13 10 5 5 3 5 4 3 4 4 2 2 2 2 3 3 4 2 1 3 4 3 4 4 3 2 0 1 1 2 3 4 3 1 1 3 2 3 2 2 0 4 2 1 2 2 1 3 1 2 2 1 2 2 3 3 2 2 3 3 2 3 4 4 3 7 6 5 10 12 10 10 9 7 9 8 7 7 7 8 7
3 1 1 4 7 10 14 13 6 5 2 4 5 4 2 3 3 1 1 1 1 2 2 3 2 1 3 4 3 2 1 2 3 1 1 1 2 3 2 2 3 1 3 3 2 1 3 1 3 3 3 2 2 3 5 6 4 2 0 1 1 1 2 0 1 2 3 2 2 2 4 7 7 5 8 13 13 10 9 8 8 9 9 8 7 7 8 7
1 1 3 3 9 13 14 9 3 3 3 3 3 3 2 2 1 1 2 1 0 0 1 4 4 3 3 3 3 3 2 1 3 2 2 3 2 3 1 1 4 4 3 3 0 2 2 2 3 1 2 3 5 4 2 3 4 5 4 5 4 4 4 1 3 1 2 2 4 2 4 10 6 5 9 12 11 9 8 7 8 9 9 9 8 7 7 7
3 2 3 3 10 14 11 4 2 2 3 3 3 3 1 1 1 1 1 2 1 0 1 1 2 3 4 3 2 3 3 1 2 2 3 5 5 5 1 1 3 5 5 3 3 3 3 3 2 3 4 5 5 4 1 0 2 3 3 3 4 4 5 4 3 3 1 1 2 4 1 9 5 5 7 9 9 7 4 5 8 9 8 8 9 9 7 7
2 4 1 2 10 11 7 1 3 1 2 4 2 1 1 1 1 0 1 1 0 1 1 1 2 3 3 2 3 3 3 3 5 5 4 4 5 5 3 1 3 4 4 2 3 2 2 2 1 4 4 2 4 4 2 2 3 1 3 2 4 3 3 4 5 3 2 3 3 3 2 10 5 4 5 7 8 9 6 5 8 9 9 7 9 10 9 8
2 3 0 1 8 8 4 4 4 4 5 2 1 1 0 1 4 3 3 4 3 3 2 2 3 3 1 2 3 4 5 3 4 5 4 3 4 3 1 2 4 5 2 2 3 2 2 2 2 2 4 5 6 5 4 3 1 3 3 2 5 4 5 3 2 2 1 6 8 5 5 12 7 2 5 7 6 8 11 8 7 7 10 8 7 9 8 9
2 1 1 1 3 4 3 5 5 5 5 2 2 3 1 1 3 3 4 4 3 4 3 2 1 2 2 2 2 1 5 2 2 3 2 2 4 2 1 2 3 3 2 2 2 2 2 3 3 3 3 4 4 3 3 3 2 3 2 3 6 6 7 4 2 2 3 6 7 6 8 12 9 11 14 12 8 9 13 12 8 7 9 9 8 8 8 8
2 2 1 3 3 1 1 1 4 4 5 5 2 3 5 5 3 1 3 4 3 3 1 1 1 3 3 2 2 3 5 2 1 1 1 3 4 2 0 1 2 1 2 2 1 2 3 2 4 6 7 8 7 6 5 3 3 3 3 4 6 7 7 5 3 4 5 3 3 6 12 15 14 16 21 19 16 15 15 15 13 8 8 9 8 8 8 7
2 3 3 2 1 2 3 2 2 3 3 6 4 4 7 8 3 0 2 3 1 1 1 1 2 4 4 5 4 4 4 1 1 1 4 5 4 3 1 1 2 1 3 2 1 3 4 3 6 8 10 12 8 5 5 4 4 6 6 5 7 8 7 8 8 8 5 2 6 12 15 16 17 20 22 20 19 18 16 17 16 11 7 7 6 7 8 9
2 2 3 4 2 5 5 5 7 7 5 5 4 3 5 7 5 4 3 1 1 1 3 2 3 9 10 8 6 3 2 1 2 4 4 3 3 2 1 1 1 1 2 1 1 3 4 4 5 6 9 12 10 6 6 5 4 5 7 7 8 10 12 15 16 10 7 7 15 14 12 13 17 21 22 19 18 18 17 16 15 13 10 7 6 8 10 12
1 2 3 1 2 6 6 5 9 11 9 6 3 4 7 8 8 6 3 3 1 4 5 5 9 11 11 8 7 5 5 5 5 6 5 3 2 1 1 2 1 2 2 2 1 1 4 3 2 2 4 11 11 7 6 6 5 5 7 9 9 13 17 16 14 14 15 17 20 17 15 16 19 21 21 19 18 15 13 15 15 15 14 11 9 11 13 14
2 2 2 1 0 3 1 3 8 9 8 5 6 7 6 8 10 6 3 6 5 3 5 10 11 8 9 9 8 9 12 12 8 7 7 5 4 4 4 4 3 2 1 2 0 1 2 2 1 4 2 10 7 2 0 3 5 6 7 10 13 14 12 11 14 15 15 17 20 19 17 17 21 22 21 20 19 14 14 17 16 14 14 12 11 11 12 13
3 1 2 3 2 3 3 3 5 6 5 6 8 7 6 10 13 8 4 8 10 8 10 15 11 5 5 7 10 16 17 12 10 10 10 9 6 5 4 3 6 5 3 3 2 1 3 2 2 5 1 8 5 4 3 2 2 2 7 13 18 13 9 12 13 11 12 17 19 14 11 14 20 21 16 13 14 15 17 16 12 12 11 10 10 11 12 13
5 3 1 3 3 4 5 3 4 5 5 6 9 9 8 10 10 9 4 6 8 10 12 14 10 6 4 8 14 20 17 11 9 7 7 5 3 3 2 3 7 7 6 6 3 2 5 3 1 2 2 7 6 2 2 3 3 4 8 16 20 16 14 14 9 8 16 18 12 10 12 16 17 15 11 10 13 14 13 10 8 10 11 9 9 11 12 13
Wind_Direction
263 267 276 277 274 268 270 283 278 274 277 285 304 297 298 329 329 324 319 305 288 305 313 310 315 319 338 347 348 343 318 302 302 279 241 248 248 239 244 237 234 248 260 269 268 245 195 150 170 142 116 113 74 232 193 132 111 132 140 181 224 191 198 191 184 195 182 245 261 270 188 178 271 286 270 352 282 261 266 261 259 275 264 246 248 255 289 255
263 262 271 277 276 268 267 276 276 283 292 293 299 295 296 316 312 308 312 302 291 306 314 309 319 335 337 343 350 340 313 298 291 264 250 253 248 238 235 245 256 260 262 260 250 193 151 184 169 123 98 114 335 331 213 201 145 156 136 195 231 197 210 206 181 195 187 213 240 273 222 191 227 246 31 300 274 288 285 272 262 272 269 263 259 251 255 230
265 260 262 269 274 269 267 271 274 281 288 291 295 296 297 300 292 290 293 289 289 303 308 312 333 342 334 339 347 333 307 297 283 257 254 239 229 240 244 264 270 265 257 243 222 171 154 171 154 123 88 161 289 351 192 253 206 173 133 219 246 213 236 244 199 210 216 197 236 280 220 192 236 220 99 268 281 283 258 254 242 255 262 264 263 243 233 218
268 263 259 262 268 270 271 270 271 277 279 282 285 286 291 295 287 280 281 279 284 296 297 305 328 338 332 330 335 325 308 293 271 243 167 195 219 246 259 275 278 265 244 216 190 160 142 132 130 107 99 177 302 354 187 255 214 158 152 201 237 196 238 253 213 218 227 195 176 185 62 280 255 190 203 234 296 283 253 228 223 241 253 256 266 239 210 207
271 268 264 262 266 269 273 271 271 273 276 278 277 278 284 292 289 280 277 275 278 288 299 312 327 335 327 324 329 323 320 307 274 90 105 173 235 260 271 282 282 259 218 191 175 149 137 119 101 70 86 175 298 58 224 250 115 155 215 200 202 162 230 254 217 214 194 141 159 155 270 267 239 174 219 193 240 263 250 189 211 229 242 249 263 235 194 204
269 269 267 266 267 269 271 272 273 272 273 272 269 275 281 286 289 284 277 276 277 285 309 325 331 335 328 332 336 317 290 288 327 105 155 284 278 275 281 286 277 235 190 176 163 140 133 96 97 125 86 161 170 182 234 297 95 222 264 249 221 181 225 259 214 222 169 134 190 205 250 254 12 281 229 199 229 248 258 211 217 230 235 250 270 210 195 211
267 267 267 268 268 269 270 272 274 271 268 267 270 278 282 284 287 285 281 279 278 288 311 326 332 341 340 346 344 303 225 267 280 182 257 305 295 287 288 285 261 213 186 171 153 138 133 107 147 164 106 116 189 209 227 13 63 188 256 286 251 185 221 258 17 239 171 188 214 211 308 230 251 278 313 240 241 248 266 263 248 250 246 259 267 227 221 222
268 267 267 268 269 270 272 272 273 271 269 270 275 281 284 286 285 283 280 275 278 286 302 322 335 345 346 352 352 294 262 262 264 246 282 311 308 305 293 277 240 216 198 187 174 154 140 139 175 154 107 213 187 172 154 57 48 195 227 265 247 200 243 274 308 256 208 231 235 317 285 239 234 269 315 265 259 256 260 263 261 266 268 255 251 246 240 235
269 267 267 269 270 271 272 273 273 273 275 276 278 281 284 285 284 285 280 270 272 279 290 313 327 336 337 345 14 301 271 252 265 286 304 313 312 323 306 264 223 222 197 200 196 164 157 171 193 177 168 204 169 148 132 155 249 221 208 239 260 276 286 291 274 250 225 237 179 225 263 255 249 291 276 264 266 272 274 290 288 281 266 251 247 247 240 239
266 266 266 267 269 271 272 273 274 276 280 281 281 282 284 284 284 286 284 277 271 269 273 290 307 321 323 326 335 288 266 266 299 305 314 308 303 316 301 252 226 231 202 193 189 165 171 190 180 156 145 144 153 129 132 166 195 203 190 243 251 278 303 277 262 266 242 243 183 210 260 268 287 348 263 260 242 45 359 319 297 288 257 251 249 250 242 240
262 264 265 266 267 270 273 274 276 281 284 284 283 282 284 285 283 285 287 282 270 258 258 273 289 294 289 275 208 259 260 278 303 314 316 306 293 291 301 254 224 223 206 180 183 184 197 180 150 118 137 158 147 96 223 196 150 161 159 297 282 304 306 245 257 272 235 256 196 191 268 276 26 194 243 249 56 2 342 304 290 286 269 265 257 258 244 240
261 262 265 269 270 272 274 276 280 283 284 283 282 283 287 286 284 283 282 283 273 261 261 265 257 239 248 226 223 246 256 278 301 316 315 309 284 280 336 311 212 206 204 188 190 198 171 160 133 100 205 146 132 71 232 203 103 126 68 320 298 341 324 256 260 267 170 222 191 163 288 270 200 224 244 259 354 342 329 294 290 287 277 278 265 266 253 247
264 265 267 270 274 276 276 278 281 280 280 279 279 283 289 288 285 276 272 277 275 270 266 257 235 211 217 252 242 243 250 267 296 308 311 307 251 267 352 344 196 183 197 181 170 165 144 157 125 98 132 110 147 199 99 66 52 253 63 35 308 350 322 275 335 38 159 191 187 147 290 261 209 236 253 285 345 328 311 285 291 292 284 281 265 268 265 255
268 270 270 271 274 277 278 278 277 277 278 279 280 285 289 286 279 272 264 262 269 277 270 251 228 191 189 256 263 249 244 247 272 306 327 331 224 234 6 10 166 153 143 131 145 144 145 151 108 95 99 82 163 165 41 9 10 289 9 36 349 347 284 291 348 128 156 188 115 134 254 262 271 268 267 299 307 253 288 283 291 290 285 282 271 266 267 262
273 271 273 272 272 272 274 275 274 277 278 278 281 285 285 281 275 271 265 259 273 281 264 233 206 174 207 271 266 260 248 234 275 331 357 15 1 302 21 56 117 121 92 100 115 113 129 131 98 88 86 7 59 74 343 343 8 25 316 307 344 183 267 307 318 153 175 335 40 143 240 274 292 282 282 339 89 109 292 288 293 287 285 282 278 270 266 269
283 276 277 272 268 267 268 271 273 275 276 277 281 283 282 278 272 267 266 272 277 272 237 203 195 174 275 279 249 262 260 218 334 349 356 5 11 12 57 81 93 98 93 97 99 98 97 89 76 82 127 85 74 83 23 348 336 358 9 258 276 210 281 321 314 235 233 43 7 200 255 285 275 279 286 246 108 337 305 290 291 286 284 281 278 276 269 274
290 284 284 275 268 263 263 267 270 273 277 279 281 282 279 271 266 267 272 274 259 241 154 174 179 154 269 267 255 287 286 336 354 354 354 358 8 21 73 77 68 79 91 89 85 80 47 51 80 110 56 58 96 97 40 318 284 317 13 246 257 228 262 307 307 328 23 99 247 237 253 266 264 282 285 268 260 296 288 280 284 283 284 283 280 281 274 272
294 292 288 278 271 265 262 266 272 277 279 279 279 276 270 261 258 256 228 163 144 55 351 291 69 93 272 274 280 284 292 323 337 352 357 359 10 35 70 79 81 77 69 55 47 44 12 33 78 66 23 14 95 119 167 231 217 206 204 217 290 288 245 262 280 303 18 24 248 246 260 267 270 272 277 279 266 268 272 271 273 276 279 283 284 280 275 273
298 296 291 283 276 270 267 269 275 276 274 272 267 255 250 268 272 243 154 132 150 109 235 232 150 164 260 286 296 302 306 328 348 1 7 12 18 57 65 64 86 87 80 73 15 26 54 56 70 109 230 237 189 173 193 205 164 147 173 163 246 286 268 246 258 266 316 321 260 239 249 272 280 274 274 282 273 252 268 271 268 272 275 277 280 276 273 272
303 301 298 293 282 275 269 270 274 271 269 262 230 201 215 343 1 314 271 154 198 177 196 226 200 228 296 312 315 325 310 307 48 47 18 4 2 112 51 30 43 57 90 157 209 7 93 134 191 205 214 219 219 199 177 173 126 111 141 143 250 263 282 267 267 288 314 265 264 242 251 274 281 279 273 276 277 266 267 273 270 267 269 269 272 274 272 266
308 307 304 295 285 279 269 269 272 262 260 237 190 164 185 181 105 320 269 262 240 183 231 234 199 244 275 285 326 347 342 312 25 71 33 6 83 152 308 19 61 55 341 190 202 357 82 179 230 229 211 200 213 168 134 139 100 75 177 277 286 247 269 273 275 303 320 221 268 345 318 286 282 284 279 271 269 266 263 268 269 266 266 267 268 271 272 271
312 309 305 293 283 279 271 271 263 249 246 218 195 205 245 208 174 132 154 281 274 214 271 272 199 271 282 283 328 28 71 347 324 342 17 16 45 174 273 52 101 173 325 52 101 8 25 228 247 248 170 112 68 103 117 130 110 86 147 243 290 257 281 294 317 323 336 205 275 358 345 291 284 285 280 271 255 255 258 253 260 269 271 268 264 268 277 287
313 311 307 296 287 277 270 269 251 241 232 213 202 213 285 273 163 90 72 261 287 298 25 291 194 264 309 318 247 88 96 284 292 316 352 13 39 52 118 84 88 134 33 124 147 126 247 254 258 126 122 107 70 69 99 103 104 121 147 166 270 273 316 290 306 321 306 223 279 321 315 283 288 292 284 278 252 253 271 261 258 255 253 260 266 270 275 281
315 314 311 302 296 276 267 264 248 242 230 224 223 218 245 301 156 36 12 177 294 306 267 247 184 197 246 322 128 110 136 215 223 307 352 31 130 62 122 128 101 127 213 167 146 175 219 240 132 101 98 128 123 99 119 134 285 283 192 193 236 256 233 240 284 318 317 344 333 326 315 285 301 316 300 298 283 267 284 304 289 262 247 261 276 278 265 262
318 315 312 307 302 256 218 256 248 233 216 223 233 231 237 252 211 33 34 58 313 305 314 283 6 182 193 76 41 148 164 224 218 264 339 40 148 89 73 143 125 191 216 145 130 218 252 250 125 116 86 110 136 198 201 170 249 306 240 216 226 239 253 274 314 339 1 353 346 16 358 293 307 319 287 292 309 291 294 335 301 288 285 271 265 272 268 265
321 316 312 306 293 178 176 256 244 201 199 223 237 231 228 229 230 79 72 53 314 284 322 178 172 179 189 33 349 158 109 294 272 264 354 37 151 136 120 173 14 192 188 149 145 218 262 15 75 140 136 109 106 258 239 167 137 302 263 213 203 173 177 323 348 13 17 294 294 64 87 269 303 294 268 285 311 296 298 312 289 281 288 266 249 269 284 290
323 319 311 296 238 174 183 264 201 174 192 256 234 216 219 216 209 156 71 33 325 259 106 205 173 137 190 287 343 141 186 288 323 1 41 44 358 82 129 250 2 190 183 142 217 244 125 78 47 94 102 104 113 269 239 147 126 249 243 143 118 101 106 120 54 53 246 277 312 37 129 248 295 269 261 296 311 293 299 304 286 266 265 268 277 286 288 294
324 319 310 292 220 196 206 244 198 189 216 324 203 193 198 188 180 117 75 38 317 132 105 260 122 115 213 335 41 101 225 312 55 298 327 34 6 62 53 228 177 190 205 138 219 258 130 154 187 121 90 120 204 232 224 142 124 246 218 140 118 107 121 124 83 62 333 346 326 329 99 230 275 272 286 323 300 291 298 297 286 278 277 287 299 297 292 293
318 312 310 295 232 210 215 231 232 213 250 353 101 168 162 152 143 72 70 169 295 64 77 67 125 89 347 41 30 31 9 11 85 275 336 24 356 59 105 204 144 135 224 131 204 243 203 214 195 143 134 206 212 220 204 144 137 214 164 109 70 76 78 74 78 75 36 16 275 287 39 229 268 282 295 325 245 274 288 286 277 277 280 282 289 295 301 305
308 298 301 287 231 212 215 237 248 225 256 340 158 159 147 122 77 59 40 247 256 278 254 94 189 306 48 94 339 343 118 271 332 347 358 1 358 28 94 167 102 110 1 4 204 220 332 321 192 143 170 182 157 156 168 125 125 137 114 51 28 32 36 44 54 71 55 316 261 277 308 175 280 282 257 196 199 234 287 306 294 292 293 284 276 275 281 293
302 286 281 247 197 192 199 249 254 217 214 178 161 148 127 74 64 90 232 248 174 304 347 61 299 27 74 142 256 332 93 308 331 30 28 339 19 31 72 95 87 83 6 347 274 248 354 347 220 203 160 132 110 82 40 59 88 99 85 49 25 351 10 24 359 42 79 256 266 294 293 179 245 265 249 253 260 232 231 294 295 299 302 300 294 283 274 285
297 273 266 238 201 192 193 249 316 190 176 155 151 119 81 63 49 172 258 301 8 292 271 186 302 48 78 105 246 283 115 23 354 102 146 151 134 187 182 175 174 2 335 267 267 307 241 214 246 16 160 144 114 85 36 13 34 75 81 68 51 342 357 359 319 2 198 249 274 322 319 211 246 263 264 271 277 265 243 254 268 278 288 294 298 300 304 305
292 262 256 242 213 199 197 213 11 162 172 161 139 55 74 96 239 222 256 320 353 304 2 71 14 42 62 39 310 265 167 208 333 93 161 151 201 260 255 205 168 136 288 212 310 341 311 301 18 79 281 199 130 134 152 304 69 111 128 111 111 109 52 303 279 285 269 263 279 306 320 266 274 275 255 250 262 263 250 250 253 258 269 279 290 299 304 301
293 253 241 238 218 204 199 214 305 182 178 163 87 60 89 162 241 218 244 262 262 346 17 57 43 34 44 71 272 263 169 255 273 110 52 54 24 286 277 250 174 118 102 156 240 119 259 302 37 137 284 351 127 171 164 147 131 159 154 123 135 151 151 232 238 233 266 290 298 302 306 214 234 275 267 250 256 257 246 253 265 267 267 277 290 294 293 291
286 239 225 223 213 205 198 206 222 180 176 130 60 83 142 223 243 216 236 239 230 12 7 22 60 53 333 297 308 314 202 243 64 107 137 179 191 214 217 219 196 143 117 160 230 150 194 263 287 280 268 203 185 219 149 112 113 190 134 108 162 184 149 179 195 184 214 323 300 269 240 222 227 281 290 296 300 293 276 268 280 278 272 282 290 285 283 284
263 219 196 186 194 195 192 196 183 176 165 89 72 142 202 224 213 185 203 174 125 145 115 16 55 125 286 294 314 318 278 208 36 67 257 231 213 212 218 219 194 179 158 157 205 166 174 276 302 320 289 67 149 228 71 71 158 158 138 168 224 184 118 114 227 6 63 338 276 253 257 284 308 288 294 332 332 315 318 315 307 294 295 302 287 283 290 290
192 175 171 172 168 177 184 185 172 168 127 85 128 211 223 223 193 175 180 111 112 132 117 48 248 187 235 257 259 270 217 169 250 243 242 260 250 209 220 261 201 192 189 158 204 199 162 270 309 45 252 341 333 154 35 6 127 119 169 220 216 136 84 92 256 346 40 232 272 283 252 286 321 289 310 336 316 303 307 313 320 314 316 319 299 293 295 289
169 156 192 174 162 168 172 172 167 150 81 89 203 245 214 203 195 167 164 140 127 102 112 190 233 185 195 204 225 218 194 209 229 196 205 243 257 193 181 238 185 199 230 148 224 262 153 261 307 18 207 317 3 70 30 343 45 107 188 217 124 141 116 81 151 237 254 254 283 295 282 266 227 240 289 296 284 285 293 303 316 310 308 311 302 301 302 300
164 132 321 169 159 164 162 162 156 106 72 152 218 252 216 230 249 199 181 168 138 124 158 218 231 127 181 184 199 206 196 206 195 178 214 207 265 212 178 199 150 352 314 132 168 237 105 194 285 309 268 303 21 141 200 229 33 43 331 345 31 163 170 147 145 168 200 241 280 304 321 258 222 212 235 260 265 267 276 288 297 291 287 283 279 290 301 303
168 82 289 173 153 159 156 149 123 91 119 188 201 223 246 265 266 241 237 236 166 170 196 200 175 179 210 202 213 212 111 156 161 159 252 228 275 265 214 161 137 105 3 65 125 197 86 163 256 299 313 254 207 216 195 181 162 133 201 271 237 167 128 175 224 141 144 170 217 291 307 272 245 190 209 246 258 251 248 260 271 276 281 277 266 269 283 290
127 90 256 168 149 157 147 132 120 146 178 212 204 220 251 238 227 325 331 348 88 247 166 162 166 180 186 192 228 204 125 117 164 174 246 238 243 255 282 99 149 152 95 70 170 213 149 175 197 232 281 219 232 256 214 186 172 160 183 198 185 156 123 142 272 279 107 159 188 160 287 275 252 172 206 237 251 254 240 237 259 271 273 279 280 268 266 276
91 171 241 144 161 165 138 128 225 137 158 215 206 203 218 169 157 292 327 14 29 18 52 104 163 174 178 182 202 176 151 164 183 184 230 225 214 218 231 67 149 144 114 134 222 213 150 115 140 229 229 215 251 294 5 167 114 133 209 206 167 156 138 145 213 245 159 179 185 115 249 270 247 174 214 238 252 270 251 221 257 275 270 277 290 286 278 271
129 189 225 122 175 169 126 162 253 278 233 243 238 197 169 105 139 169 243 252 272 110 17 307 199 196 223 193 154 170 188 194 187 193 220 232 232 228 211 143 156 132 110 154 205 187 148 119 137 279 294 313 313 338 11 14 62 159 242 189 162 176 147 150 177 181 155 194 185 113 238 269 271 166 213 264 289 302 296 237 241 270 277 271 274 283 288 280
152 185 88 143 186 175 154 194 202 221 237 262 339 238 264 187 180 164 192 212 200 156 163 225 208 202 230 147 125 187 207 203 205 212 205 202 238 244 195 218 198 165 150 195 175 166 213 179 120 309 321 334 339 353 345 332 290 220 236 189 192 163 106 112 149 110 261 223 191 159 237 261 283 303 254 267 278 286 285 258 220 245 271 268 258 267 274 277
130 154 346 304 178 155 180 184 157 181 203 184 247 237 207 233 209 177 186 202 193 169 171 236 218 124 102 99 61 237 217 211 239 233 186 208 255 302 24 281 232 200 229 239 190 178 203 182 139 151 220 257 269 269 256 249 202 218 227 193 201 173 142 152 133 126 244 232 181 176 244 258 286 304 287 275 260 262 275 272 245 232 256 267 264 262 266 270
147 170 296 332 353 76 223 159 111 142 174 166 224 233 192 212 260 190 181 199 188 157 145 287 157 92 81 128 153 245 241 248 355 234 214 230 258 295 24 14 3 241 219 212 208 114 107 204 201 185 205 224 226 221 204 158 131 186 211 193 192 192 173 141 115 179 204 206 183 214 249 264 279 284 281 284 285 281 281 283 278 257 244 256 261 262 267 267
183 191 174 161 306 247 257 307 140 165 182 172 187 208 193 205 236 118 188 219 210 134 172 246 158 161 173 168 175 226 233 234 58 209 228 233 253 285 246 96 34 232 190 199 250 109 104 250 228 204 225 240 239 225 179 165 197 198 195 194 187 188 175 167 199 209 154 129 253 234 234 254 267 267 268 275 280 281 282 282 286 284 261 248 259 272 277 274
202 221 193 162 176 203 212 220 193 192 201 182 180 198 187 191 195 192 201 224 1 212 195 225 227 204 190 169 166 192 181 170 247 229 220 228 247 291 295 188 220 234 154 174 321 109 137 240 230 197 237 254 256 245 193 195 235 205 197 209 188 181 190 199 216 217 171 213 250 247 235 246 257 260 263 266 265 269 275 277 282 289 284 274 281 288 285 282
192 253 258 151 181 204 202 179 169 186 202 186 192 219 192 187 200 206 158 103 292 251 195 219 238 213 194 177 164 185 192 186 223 229 202 195 202 196 248 225 233 5 88 147 293 141 164 240 256 158 260 269 266 254 211 211 241 234 225 229 210 202 206 207 219 226 220 233 251 261 263 262 260 260 263 265 263 264 274 279 281 284 287 290 289 285 282 281
183 219 222 85 113 214 202 106 147 182 199 179 210 226 187 187 206 211 148 149 197 236 183 219 231 195 188 195 184 218 219 192 202 214 177 172 199 193 212 211 166 68 63 139 212 270 209 249 2 77 314 281 284 324 176 212 223 234 251 250 236 228 219 216 227 231 233 245 253 258 266 268 265 262 260 264 272 278 273 272 276 279 282 285 281 275 274 275
220 313 137 134 199 192 160 101 127 164 183 182 209 211 187 207 206 190 197 203 199 185 181 207 212 155 167 197 204 233 231 200 206 212 174 169 195 194 209 195 148 138 157 168 146 130 182 245 10 63 320 278 310 27 25 43 106 239 266 253 241 233 217 217 223 217 219 235 246 253 260 259 259 263 264 259 262 268 268 269 275 276 271 266 263 265 265 265
214 311 45 136 234 209 163 138 138 170 194 198 205 200 200 217 193 160 198 246 217 200 190 190 181 142 156 202 216 233 232 205 207 206 165 150 132 132 175 168 148 145 157 166 149 134 157 165 104 114 210 267 296 3 63 44 3 265 237 232 231 228 224 228 233 218 217 223 231 235 238 245 256 271 281 265 251 254 262 266 264 266 267 256 243 249 259 262